Location: Koussan�
(15.2012°N, 12.5548°W)
Time: 17:11:03
(UTC+00:00)

Cosmos 1400 Rocket - Pass Details

Date: 20 October 2020
Orbit: 521 x 568 km, 81.2° (Epoch: 29 November)

Event Time Altitude Azimuth Distance (km) Brightness Sun altitude
Rises 19:27:46 0° 183° (S) 2,742 6.5 -15.4°
Reaches altitude 10° 19:29:56 10° 181° (S) 1,852 5.6 -15.9°
Maximum altitude 19:34:02 78° 95° (E) 581 2.7 -16.9°
Drops below altitude 10° 19:38:08 10° 9° (N) 1,862 5.4 -17.9°
Sets 19:40:19 0° 8° (N) 2,758 6.2 -18.4°
